OpenBCM V1.08-5-g2f4a (Linux)

Packet Radio Mailbox

IZ3LSV

[San Dona' di P. JN]

 Login: GUEST





  
I0OJJ  > KEPS     24.06.25 02:44l 343 Lines 16342 Bytes #169 (0) @ AMSAT
BID : ORB25175.1
Read: GUEST
Subj: 2Line Orbital Elements 25175.AMSAT
Path: IZ3LSV<IK6IHL<IK7NXU<HB9ON<DK0WUE<PD0LPM<IR0AAB<I0OJJ
Sent: 250624/0025z @:I0OJJ.ITA.EU [Rome] obcm1.08-10-g596e
From: I0OJJ @ I0OJJ.ITA.EU (Gustavo)
To:   KEPS @ AMSAT
X-Info: This message was generated automatically


QST de W1STR

AMSAT Orbital Elements for Amateur Satellites in TLE Format
From Orbital Analysis Office
New England Sci-Tech STEM Education Center
Natick, MA June 24, 2025
To all radio amateurs


These element sets describe the orbits of various satellites 
in use by the amateur radio community. For details see:
www.amsat.org/keplerian-elements-formats/

A daily update of element sets is available at:
www.amsat.org/tle/daily-bulletin.txt
or without bulletin text:
www.amsat.org/tle/dailytle.txt


AO-07
1 07530U 74089B   25174.47195023 -.00000029  00000-0  10840-3 0  9991
2 07530 101.9928 178.8838 0012643  95.5203  60.6945 12.53689764315561
UO-11
1 14781U 84021B   25174.37341390  .00000910  00000-0  10148-3 0  9992
2 14781  97.7551 140.4696 0006384 296.9266  63.1299 14.89422832203691
AO-27
1 22825U 93061C   25174.62349930  .00000069  00000-0  43670-4 0  9992
2 22825  98.7360 236.2488 0009494  74.6573 285.5658 14.30803650655998
FO-29
1 24278U 96046B   25174.65163027 -.00000003  00000-0  35932-4 0  9997
2 24278  98.5744  66.6912 0349047 306.2726  50.6631 13.53249621424923
NOAA-15
1 25338U 98030A   25174.83502862  .00000178  00000-0  90782-4 0  9990
2 25338  98.5342 199.6226 0009394 323.3704  36.6833 14.26986936410431
GO-32
1 25397U 98043D   25174.39032967  .00000039  00000-0  36953-4 0  9990
2 25397  98.9708 153.7980 0001827 133.3446 226.7884 14.24318195400250
ISS
1 25544U 98067A   25174.77426112  .00008382  00000-0  15356-3 0  9993
2 25544  51.6364 274.4306 0002139 280.3833  79.6915 15.50207468516181
NO-44
1 26931U 01043C   25174.19786796  .00000093  00000-0  66072-4 0  9998
2 26931  67.0510  92.6309 0006119 276.5445  83.4961 14.31740670239054
SO-50
1 27607U 02058C   25174.38942598  .00000996  00000-0  14136-3 0  9996
2 27607  64.5514 157.9074 0057954 330.9882  28.8005 14.81657463211276
CO-55
1 27844U 03031E   25174.45162469  .00000235  00000-0  12116-3 0  9992
2 27844  98.6753 182.5458 0010392 141.4344 218.7579 14.24005982140610
CO-57
1 27848U 03031J   25174.47681219  .00000189  00000-0  10259-3 0  9991
2 27848  98.6782 182.5658 0009938 157.6698 202.4915 14.23339282140349
RS-22
1 27939U 03042A   25174.81531310  .00000686  00000-0  11671-3 0  9999
2 27939  98.3289 344.6112 0010696 330.7158 141.4072 14.72383217162928
CO-58
1 28895U 05043F   25173.37397887  .00001042  00000-0  17795-3 0  9993
2 28895  98.2512 317.8849 0013223 265.6817  94.2878 14.71050537 48820
CO-65
1 32785U 08021C   25174.57212233  .00002817  00000-0  20525-3 0  9995
2 32785  97.7858 145.8406 0010580 153.9961 206.1798 15.04545156931188
CO-66
1 32791U 08021J   25174.47274166  .00007544  00000-0  36384-3 0  9996
2 32791  97.7272 154.8259 0005738 111.5844 248.6002 15.18986059932603
RS-30
1 32953U 08025A   25174.80774488  .00000040  00000-0  21880-3 0  9998
2 32953  82.5018 218.3301 0019476  18.8425 341.3371 12.43165542775308
NOAA-19
1 33591U 09005A   25174.78690079  .00000141  00000-0  99024-4 0  9994
2 33591  98.9968 239.5708 0013035 327.4841  32.5527 14.13380622844119
SRMSAT
1 37841U 11058D   25174.40161650  .00000360  00000-0  51453-4 0  9991
2 37841  19.9727  70.9038 0011776 216.4511 302.5763 14.11439983707068
ZACUBE-1
1 39417U 13066B   25174.29139079  .00003863  00000-0  33641-3 0  9999
2 39417  97.7801 131.2317 0044191   8.9311 351.2686 14.96768040626962
Delfi-N3xt
1 39428U 13066N   25174.74546937  .00003821  00000-0  39103-3 0  9999
2 39428  97.8351  92.2390 0083408 314.9019  44.5447 14.88562858621367
GOMX-1
1 39430U 13066Q   25174.87149647  .00001385  00000-0  22065-3 0  9995
2 39430  97.6822  32.6582 0133156 146.1564 214.8230 14.67685218617504
LO-74
1 39440U 13066AA  25174.31046092  .00002172  00000-0  22285-3 0  9994
2 39440  97.8498 118.7762 0063090 133.7150 226.9318 14.90006155623482
AO-73
1 39444U 13066AE  25174.33322148  .00004026  00000-0  30246-3 0  9995
2 39444  97.7810 136.3026 0041588 342.8318  17.1497 15.02499631625657
DTUSAT-2
1 40030U 14033W   25174.55404927  .00004221  00000-0  27547-3 0  9990
2 40030  98.0546 147.0497 0009635  23.5367 336.6299 15.08416949598504
EO-80
1 40032U 14033Y   25174.70621272  .00003937  00000-0  25677-3 0  9998
2 40032  98.0435 146.8449 0007270 323.4583  36.6147 15.08506609599022
LILACSAT-2
1 40908U 15049K   25174.84821013  .00007881  00000-0  20462-3 0  9997
2 40908  97.5046 195.5404 0011087 107.7062 252.5395 15.39196086540426
IO-86
1 40931U 15052B   25151.18580175  .00001241  00000-0  78118-4 0  9996
2 40931   6.0006  24.0987 0012733 338.8432  21.1169 14.78805930523047
Horyu-4
1 41340U 16012D   25174.89234716  .00014678  00000-0  38410-3 0  9996
2 41340  30.9977  35.6470 0005927 214.0577 145.9689 15.37417386514998
Lapan A3
1 41603U 16040E   25174.82447955  .00002494  00000-0  88422-4 0  9995
2 41603  97.1363 178.8734 0009934 209.9053 150.1622 15.29944424499964
CAS-2T
1 41847U 16066G   25174.47652226  .00001364  00000-0  20100-3 0  9996
2 41847  98.4199 248.8178 0346949 136.3497 226.5702 14.43525133453021
CAS-4B
1 42759U 17034B   25174.64286144  .00046548  00000-0  45640-3 0  9995
2 42759  43.0059 237.9517 0020090  24.5397 335.6421 15.65064513444805
CAS-4A
1 42761U 17034D   25174.85537658  .00051007  00000-0  47210-3 0  9991
2 42761  43.0092 233.6764 0021086  31.0280 329.1827 15.66436964444860
TechnoSat
1 42829U 17042E   25174.43646956  .00001390  00000-0  11086-3 0  9993
2 42829  97.3857 342.4865 0015063 225.4066 134.5931 15.01765890432803
AO-91
1 43017U 17073E   25173.36056343  .00006240  00000-0  31736-3 0  9996
2 43017  97.5250  43.8105 0173902 122.7367 239.0757 15.04906148411137
S-Net D
1 43186U 18014G   25174.46372373  .00003253  00000-0  19344-3 0  9997
2 43186  97.5623  77.2292 0009308 166.6947 193.4530 15.11939332404475
S-Net B
1 43187U 18014H   25174.46930373  .00003372  00000-0  20043-3 0  9998
2 43187  97.5629  77.2073 0010139 162.9749 197.1823 15.11918875404477
S-Net A
1 43188U 18014J   25174.46406269  .00003269  00000-0  19433-3 0  9997
2 43188  97.5634  77.3537 0010001 163.4691 196.6867 15.11944059404475
S-Net C
1 43189U 18014K   25174.47173937  .00003437  00000-0  20418-3 0  9994
2 43189  97.5652  77.3782 0011691 157.8034 202.3704 15.11914188403027
Ten-Koh
1 43677U 18084G   25174.73219212  .00001370  00000-0  11352-3 0  9990
2 43677  98.0855 347.5483 0006549 203.1805 156.9124 15.00629372362364
PO-101
1 43678U 18084H   25174.81289479  .00001132  00000-0  10030-3 0  9990
2 43678  98.1026 351.4808 0007824 237.1844 122.8624 14.98379071362516
QO-100
1 43700U 18090A   25174.57739751  .00000148  00000-0  00000-0 0  9998
2 43700   0.0156 302.3189 0002190 193.3004  10.0288  1.00272418 24084
MinXSS-2
1 43758U 18099A   25174.42909351  .00009905  00000-0  38594-3 0  9991
2 43758  97.5019 240.5113 0013339 107.6052 252.6644 15.26092053359083
AO-95
1 43770U 18099N   25174.43158963  .00006258  00000-0  31558-3 0  9992
2 43770  97.4914 232.3650 0011506 156.9525 203.2227 15.17442955358652
RANGE-A
1 43773U 18099R   25174.78979010  .00002899  00000-0  18595-3 0  9990
2 43773  97.4477 222.7796 0012594 137.4188 222.8020 15.09201174358363
MOVE-II
1 43780U 18099Y   25174.45623206  .00342419  00000-0  14012-2 0  9999
2 43780  97.4643 251.2467 0005817 214.2555 145.8340 15.85193531359990
SNUSat 2
1 43782U 18099AA  25174.61151519  .00004852  00000-0  26434-3 0  9990
2 43782  97.4593 229.1796 0013734 104.8182 255.4573 15.14792673358621
SnugLite
1 43784U 18099AC  25174.78843766  .00005638  00000-0  28220-3 0  9990
2 43784  97.4406 228.9423 0005182 105.1811 254.9996 15.17786074358793
ITASat 1
1 43786U 18099AE  25174.56653332  .00004670  00000-0  26689-3 0  9998
2 43786  97.4560 228.6042 0015203 153.0843 207.1180 15.13079176358577
EAGLET 1
1 43790U 18099AJ  25174.87259285  .00002608  00000-0  16786-3 0  9992
2 43790  97.4759 228.8135 0013335 135.4604 224.7699 15.09157876358221
ESEO
1 43792U 18099AL  25174.58571999  .00000991  00000-0  78451-4 0  9992
2 43792  97.4480 221.6117 0015218 111.4312 248.8538 15.02668069357926
CSIM
1 43793U 18099AM  25174.47458985  .00069041  00000-0  39743-3 0  9991
2 43793  97.4795 253.4774 0005304 155.5202 204.6317 15.78502995359835
JO-97
1 43803U 18099AX  25174.59757977  .00007128  00000-0  32319-3 0  9999
2 43803  97.4657 233.5496 0009146  97.7789 262.4485 15.21103971358903
Suomi 100
1 43804U 18099AY  25174.63474298  .00006228  00000-0  30343-3 0  9992
2 43804  97.4723 232.8428 0013977  99.8635 260.4178 15.18616540358831
ISAT
1 43879U 18111D   25174.48946048  .00012117  00000-0  41467-3 0  9992
2 43879  97.5957  89.1937 0010083 138.7441 221.4563 15.30346934355826
UWE-4
1 43880U 18111E   25174.70332477  .00009740  00000-0  37805-3 0  9993
2 43880  97.5899  87.7916 0012800 152.4593 207.7326 15.26237360353788
Sparrow
1 43881U 18111F   25174.52543102  .00013392  00000-0  44073-3 0  9996
2 43881  97.6103  92.1625 0007035 170.4237 189.7139 15.31612901355927
Prox-1
1 44339U 19036A   25174.43878159  .00007170  00000-0  88831-3 0  9992
2 44339  23.9984 330.7450 0006698 232.7064 127.2823 14.80203431320078
SONATE
1 44400U 19038Q   25174.33609851  .00555664  15325-3  73854-3 0  9997
2 44400  97.6725 203.3989 0009009 187.8046 172.3096 16.06641229331772
Taurus 1
1 44530U 19059C   25174.85546394  .00003561  00000-0  65925-3 0  9998
2 44530  98.6080 314.9278 0008558 359.4800   0.6391 14.65985453306039
Duchifat 3
1 44854U 19089C   25174.62853700  .00030431  00000-0  57288-3 0  9996
2 44854  36.9430 265.7973 0003331  69.6576 290.4539 15.47642526305125
TO-108
1 44881U 19093C   25174.83887331  .00000605  00000-0  75995-4 0  9997
2 44881  97.7923 250.1906 0013816 178.7909 181.3342 14.85625802298199
